Darstellungsparameter: Aktuell verwendete Einstellungen:
Skalierung der Graphiken ... ?
xyx+y,   Skalierungsfaktor:      Skalierung: Modus: x, Faktor: 1
Darstellungszeitraum ... ?
Vom - - bis: - -   Zeitraum: 19.01.2011 - 20.01.2011
Min/Max/Avg-Anzeige ... ?
Zeige MMA aktuell
Zeige MMA Monat
Zeige MMA alles
Zeige --A aktuell
Zeige --A Monat
Zeige --A alles
Keine MMA-Anzeige
MMA:
Average (ber die Originaldaten)
MMA-Basis: 19.01.2011 - 20.01.2011
Quicknavigation für Darstellung... ?
Tage:      1T, 2T, 3T, 5T -1T -2T -3T -5T +1T +2T +3T +5T
Wochen: 1W, 2W, 3W -1W -2W -3W +1W +2W +3W
Monate: 1M, 3M, 6M -1M -3M -6M +1M +3M +6M
Jahre:    1J, 3J, 5J, 10J -1J -3J -5J -10J +1J +3J +5J +10J
Nutze für die Darstellung ... ?
Originaldaten oder Mittelwerte auf ...
Stundenbasis Tagesbasis Wochenbasis
Monatsbasis Jahresbasis      Datenbasis: Original-Daten
Darstellen als:
Statistik (Auto) Statistik J:M      Darstellung:
Zur Graphik,    zurück zur Übersicht aller Sensoren.
 
Tabellarische Datenbersicht: ?
 
Sensor: Nr:Datum:Temp:Abs-Feuchte:Windchill:Wind:
Aussen-T/F 1 19-01-2011 00:08:04 4.7 C 5.46 g/m*3 4.7 C 0 km/h
2 19-01-2011 00:20:04 4.6 C 5.36 g/m*3 4.6 C 0 km/h
3 19-01-2011 00:32:04 4.3 C 5.06 g/m*3 4.3 C 0 km/h
4 19-01-2011 00:44:04 4.1 C 5.06 g/m*3 4.1 C 0 km/h
5 19-01-2011 00:56:04 4.1 C 5.06 g/m*3 4.1 C 0 km/h
6 19-01-2011 01:08:04 4 C 4.9 g/m*3 4 C 0 km/h
7 19-01-2011 01:20:04 4 C 4.83 g/m*3 4 C 0 km/h
8 19-01-2011 01:32:04 3.8 C 4.71 g/m*3 3.8 C 0 km/h
9 19-01-2011 01:44:04 3.8 C 4.71 g/m*3 3.8 C 0 km/h
10 19-01-2011 01:56:04 3.8 C 4.71 g/m*3 3.8 C 0 km/h
11 19-01-2011 02:08:04 3.8 C 4.64 g/m*3 3.8 C 0 km/h
12 19-01-2011 02:20:04 3.7 C 4.67 g/m*3 3.7 C 0 km/h
13 19-01-2011 02:32:04 3.1 C 4.61 g/m*3 3.1 C 0 km/h
14 19-01-2011 02:44:04 3.2 C 4.7 g/m*3 3.2 C 0 km/h
15 19-01-2011 02:56:04 3.3 C 4.73 g/m*3 3.3 C 0 km/h
16 19-01-2011 03:08:04 3.3 C 4.73 g/m*3 3.3 C 0 km/h
17 19-01-2011 03:20:05 2.9 C 4.78 g/m*3 2.9 C 0 km/h
18 19-01-2011 03:32:05 2.7 C 4.78 g/m*3 2.7 C 0 km/h
19 19-01-2011 03:44:05 2.7 C 4.84 g/m*3 2.7 C 0 km/h
20 19-01-2011 03:56:05 3 C 4.88 g/m*3 3 C 0 km/h
21 19-01-2011 04:08:05 3 C 4.88 g/m*3 3 C 0 km/h
22 19-01-2011 04:20:05 3 C 4.88 g/m*3 3 C 0 km/h
23 19-01-2011 04:32:05 2.8 C 4.93 g/m*3 2.8 C 0 km/h
24 19-01-2011 04:44:05 2.7 C 4.89 g/m*3 2.7 C 0 km/h
25 19-01-2011 04:56:05 2.5 C 4.89 g/m*3 2.5 C 0 km/h
Sensor: Nr:Datum:Temp:Abs-Feuchte:Windchill:Wind:
Aussen-T/F 26 19-01-2011 05:08:05 2.5 C 4.94 g/m*3 2.5 C 0 km/h
27 19-01-2011 05:20:05 2.5 C 4.94 g/m*3 2.5 C 0 km/h
28 19-01-2011 05:32:05 2.5 C 4.94 g/m*3 2.5 C 0 km/h
29 19-01-2011 05:44:05 2.6 C 5.03 g/m*3 2.6 C 0 km/h
30 19-01-2011 05:56:05 2.7 C 5.07 g/m*3 2.7 C 0 km/h
31 19-01-2011 06:08:05 2.6 C 4.98 g/m*3 2.6 C 0 km/h
32 19-01-2011 06:20:05 2.6 C 5.03 g/m*3 2.6 C 0 km/h
33 19-01-2011 06:32:05 2.6 C 4.98 g/m*3 2.6 C 0 km/h
34 19-01-2011 06:44:05 2.6 C 4.98 g/m*3 2.6 C 0 km/h
35 19-01-2011 06:56:05 2.8 C 4.99 g/m*3 2.8 C 0 km/h
36 19-01-2011 07:08:05 2.8 C 4.87 g/m*3 2.8 C 0 km/h
37 19-01-2011 07:20:06 2.9 C 4.84 g/m*3 2.9 C 0 km/h
38 19-01-2011 07:32:06 2.8 C 4.81 g/m*3 2.8 C 0 km/h
39 19-01-2011 07:44:06 2.9 C 4.9 g/m*3 2.9 C 0 km/h
40 19-01-2011 07:56:02 2.6 C 4.8 g/m*3 2.6 C 0 km/h
41 19-01-2011 08:08:02 2.4 C 4.8 g/m*3 2.4 C 0 km/h
42 19-01-2011 08:20:02 2.3 C 4.82 g/m*3 2.3 C 0 km/h
43 19-01-2011 08:32:02 2.3 C 4.88 g/m*3 2.3 C 0 km/h
44 19-01-2011 08:44:02 2.3 C 4.88 g/m*3 2.3 C 0 km/h
45 19-01-2011 08:56:02 2.7 C 4.95 g/m*3 2.7 C 0 km/h
46 19-01-2011 09:08:02 2.4 C 4.74 g/m*3 2.4 C 0 km/h
47 19-01-2011 09:20:03 2.5 C 4.77 g/m*3 2.5 C 0 km/h
48 19-01-2011 09:32:02 2.7 C 4.84 g/m*3 2.7 C 0 km/h
49 19-01-2011 09:44:02 2.9 C 4.9 g/m*3 2.9 C 0 km/h
50 19-01-2011 09:56:02 3 C 4.82 g/m*3 3 C 0 km/h
Sensor: Nr:Datum:Temp:Abs-Feuchte:Windchill:Wind:
Aussen-T/F 51 19-01-2011 10:08:02 3.1 C 4.85 g/m*3 3.1 C 0 km/h
52 19-01-2011 10:20:02 2.1 C 4.53 g/m*3 2.1 C 0 km/h
53 19-01-2011 10:32:03 2 C 4.56 g/m*3 2 C 0 km/h
54 19-01-2011 10:44:03 2.1 C 4.59 g/m*3 2.1 C 0 km/h
55 19-01-2011 10:56:02 2.7 C 4.89 g/m*3 2.7 C 0 km/h
56 19-01-2011 11:08:01 3.1 C 4.85 g/m*3 3.1 C 0 km/h
57 19-01-2011 11:20:02 3.5 C 4.86 g/m*3 3.5 C 0 km/h
58 19-01-2011 11:32:02 4 C 4.96 g/m*3 4 C 0 km/h
59 19-01-2011 11:44:02 3.9 C 4.8 g/m*3 3.9 C 0 km/h
60 19-01-2011 11:56:02 3.7 C 4.74 g/m*3 3.7 C 0 km/h
61 19-01-2011 12:08:03 4.1 C 4.67 g/m*3 4.1 C 0 km/h
62 19-01-2011 12:20:02 4.3 C 4.67 g/m*3 4.3 C 0 km/h
63 19-01-2011 12:32:02 4.4 C 4.7 g/m*3 4.4 C 0 km/h
64 19-01-2011 12:44:03 4.6 C 4.57 g/m*3 4.6 C 0 km/h
65 19-01-2011 12:56:01 4.8 C 4.56 g/m*3 4.8 C 0 km/h
66 19-01-2011 13:08:02 4.8 C 4.43 g/m*3 4.8 C 0 km/h
67 19-01-2011 13:20:01 4.7 C 4.4 g/m*3 4.7 C 0 km/h
68 19-01-2011 13:32:01 5 C 4.28 g/m*3 5 C 0 km/h
69 19-01-2011 13:44:01 5.2 C 4.34 g/m*3 5.2 C 0 km/h
70 19-01-2011 13:56:01 5 C 4.28 g/m*3 5 C 0 km/h
71 19-01-2011 14:08:02 5.3 C 4.3 g/m*3 5.3 C 0 km/h
72 19-01-2011 14:20:02 5.2 C 4.27 g/m*3 5.2 C 0 km/h
73 19-01-2011 14:32:01 5.4 C 4.19 g/m*3 5.4 C 0 km/h
74 19-01-2011 14:44:01 5.5 C 4.21 g/m*3 5.5 C 0 km/h
75 19-01-2011 14:56:01 5.4 C 4.26 g/m*3 5.4 C 0 km/h
Sensor: Nr:Datum:Temp:Abs-Feuchte:Windchill:Wind:
Aussen-T/F 76 19-01-2011 15:08:01 5.1 C 4.17 g/m*3 5.1 C 0 km/h
77 19-01-2011 15:20:02 4.9 C 4.12 g/m*3 4.9 C 0 km/h
78 19-01-2011 15:32:01 4.9 C 4.12 g/m*3 4.9 C 0 km/h
79 19-01-2011 15:44:01 4.9 C 4.12 g/m*3 4.9 C 0 km/h
80 19-01-2011 15:56:02 4.9 C 4.12 g/m*3 4.9 C 0 km/h
81 19-01-2011 16:08:01 4.9 C 4.12 g/m*3 4.9 C 0 km/h
82 19-01-2011 16:20:01 4.9 C 4.12 g/m*3 4.9 C 0 km/h
83 19-01-2011 16:32:02 3.8 C 4.52 g/m*3 3.8 C 0 km/h
84 19-01-2011 16:44:02 3.8 C 4.52 g/m*3 3.8 C 0 km/h
85 19-01-2011 16:56:02 3.5 C 4.55 g/m*3 3.5 C 0 km/h
86 19-01-2011 17:08:02 3.7 C 4.55 g/m*3 3.7 C 0 km/h
87 19-01-2011 17:20:02 3.5 C 4.49 g/m*3 3.5 C 0 km/h
88 19-01-2011 17:32:02 3.5 C 4.49 g/m*3 3.5 C 0 km/h
89 19-01-2011 17:44:02 3.1 C 4.49 g/m*3 3.1 C 0 km/h
90 19-01-2011 17:56:01 2.9 C 4.67 g/m*3 2.9 C 0 km/h
91 19-01-2011 18:08:02 2.8 C 4.69 g/m*3 2.8 C 0 km/h
92 19-01-2011 18:20:01 2.9 C 4.78 g/m*3 2.9 C 0 km/h
93 19-01-2011 18:32:02 2.6 C 4.69 g/m*3 2.6 C 0 km/h
94 19-01-2011 18:44:03 3.2 C 4.82 g/m*3 3.2 C 0 km/h
95 19-01-2011 18:56:02 3.2 C 4.52 g/m*3 3.2 C 0 km/h
96 19-01-2011 19:08:02 3.4 C 4.46 g/m*3 3.4 C 0 km/h
97 19-01-2011 19:20:01 3.5 C 4.43 g/m*3 3.5 C 0 km/h
98 19-01-2011 19:32:02 3.5 C 4.37 g/m*3 3.5 C 0 km/h
99 19-01-2011 19:44:02 3 C 4.46 g/m*3 3 C 0 km/h
100 19-01-2011 19:56:01 2.6 C 4.57 g/m*3 2.6 C 0 km/h
Sensor: Nr:Datum:Temp:Abs-Feuchte:Windchill:Wind:
Aussen-T/F 101 19-01-2011 20:08:02 2.3 C 4.59 g/m*3 2.3 C 0 km/h
102 19-01-2011 20:20:02 2.2 C 4.62 g/m*3 2.2 C 0 km/h
103 19-01-2011 20:32:02 2.4 C 4.74 g/m*3 2.4 C 0 km/h
104 19-01-2011 20:44:02 2.4 C 4.74 g/m*3 2.4 C 0 km/h
105 19-01-2011 20:56:02 2.5 C 4.77 g/m*3 2.5 C 0 km/h
106 19-01-2011 21:08:02 2.6 C 4.86 g/m*3 2.6 C 0 km/h
107 19-01-2011 21:20:02 2.5 C 4.77 g/m*3 2.5 C 0 km/h
108 19-01-2011 21:32:02 2.4 C 4.74 g/m*3 2.4 C 0 km/h
109 19-01-2011 21:44:02 2.5 C 4.77 g/m*3 2.5 C 0 km/h
110 19-01-2011 21:56:02 2.5 C 4.77 g/m*3 2.5 C 0 km/h
111 19-01-2011 22:08:02 2.4 C 4.74 g/m*3 2.4 C 0 km/h
112 19-01-2011 22:21:03 2.4 C 4.74 g/m*3 2.4 C 0 km/h
113 19-01-2011 22:33:03 2.4 C 4.74 g/m*3 2.4 C 0 km/h
114 19-01-2011 22:45:03 2.4 C 4.74 g/m*3 2.4 C 0 km/h
115 19-01-2011 22:57:03 2.4 C 4.68 g/m*3 2.4 C 0 km/h
116 19-01-2011 23:09:03 2.4 C 4.68 g/m*3 2.4 C 0 km/h
117 19-01-2011 23:21:03 2.4 C 4.74 g/m*3 2.4 C 0 km/h
118 19-01-2011 23:33:03 2.4 C 4.74 g/m*3 2.4 C 0 km/h
119 19-01-2011 23:45:03 2.1 C 4.64 g/m*3 2.1 C 0 km/h
120 19-01-2011 23:57:03 2.1 C 4.64 g/m*3 2.1 C 0 km/h
121 20-01-2011 00:09:03 1.8 C 4.71 g/m*3 1.8 C 0 km/h
122 20-01-2011 00:21:04 1.7 C 4.68 g/m*3 1.7 C 0 km/h
123 20-01-2011 00:33:04 1.7 C 4.68 g/m*3 1.7 C 0 km/h
124 20-01-2011 00:45:04 1.7 C 4.79 g/m*3 1.7 C 0 km/h
125 20-01-2011 00:57:04 1.7 C 4.79 g/m*3 1.7 C 0 km/h
Sensor: Nr:Datum:Temp:Abs-Feuchte:Windchill:Wind:
Aussen-T/F 126 20-01-2011 01:09:04 1.8 C 4.82 g/m*3 1.8 C 0 km/h
127 20-01-2011 01:21:04 1.8 C 4.88 g/m*3 1.8 C 0 km/h
128 20-01-2011 01:33:04 1.8 C 4.88 g/m*3 1.8 C 0 km/h
129 20-01-2011 01:45:04 1.9 C 4.91 g/m*3 1.9 C 0 km/h
130 20-01-2011 01:57:04 1.8 C 4.88 g/m*3 1.8 C 0 km/h
131 20-01-2011 02:09:04 1.8 C 4.88 g/m*3 1.8 C 0 km/h
132 20-01-2011 02:21:04 0.9 C 4.59 g/m*3 0.9 C 0 km/h
133 20-01-2011 02:33:04 1 C 4.62 g/m*3 1 C 0 km/h
134 20-01-2011 02:45:04 1.1 C 4.7 g/m*3 1.1 C 0 km/h
135 20-01-2011 02:57:04 1.3 C 4.77 g/m*3 1.3 C 0 km/h
136 20-01-2011 03:09:04 1.4 C 4.8 g/m*3 1.4 C 0 km/h
137 20-01-2011 03:21:04 1.3 C 4.82 g/m*3 1.3 C 0 km/h
138 20-01-2011 03:33:04 1.4 C 4.85 g/m*3 1.4 C 0 km/h
139 20-01-2011 03:45:04 1.4 C 4.85 g/m*3 1.4 C 0 km/h
140 20-01-2011 03:57:04 1.2 C 4.79 g/m*3 1.2 C 0 km/h
141 20-01-2011 04:09:04 1.2 C 4.79 g/m*3 1.2 C 0 km/h
142 20-01-2011 04:21:05 1.3 C 4.82 g/m*3 1.3 C 0 km/h
143 20-01-2011 04:33:05 1.3 C 4.82 g/m*3 1.3 C 0 km/h
144 20-01-2011 04:45:05 1 C 4.72 g/m*3 1 C 0 km/h
145 20-01-2011 04:57:05 1 C 4.72 g/m*3 1 C 0 km/h
146 20-01-2011 05:09:05 1.3 C 4.82 g/m*3 1.3 C 0 km/h
147 20-01-2011 05:21:05 1.2 C 4.79 g/m*3 1.2 C 0 km/h
148 20-01-2011 05:33:05 1.4 C 4.91 g/m*3 1.4 C 0 km/h
149 20-01-2011 05:45:05 1.4 C 4.91 g/m*3 1.4 C 0 km/h
150 20-01-2011 05:57:05 1.5 C 4.94 g/m*3 1.5 C 0 km/h
Sensor: Nr:Datum:Temp:Abs-Feuchte:Windchill:Wind:
Aussen-T/F 151 20-01-2011 06:09:05 1.4 C 4.91 g/m*3 1.4 C 0 km/h
152 20-01-2011 06:21:05 1.4 C 4.91 g/m*3 1.4 C 0 km/h
153 20-01-2011 06:33:05 1.2 C 4.84 g/m*3 1.2 C 0 km/h
154 20-01-2011 06:45:05 1.2 C 4.79 g/m*3 1.2 C 0 km/h
155 20-01-2011 06:57:05 1.2 C 4.79 g/m*3 1.2 C 0 km/h
156 20-01-2011 07:09:02 1.1 C 4.76 g/m*3 1.1 C 0 km/h
157 20-01-2011 07:21:02 1 C 4.72 g/m*3 1 C 0 km/h
158 20-01-2011 07:33:02 1 C 4.72 g/m*3 1 C 0 km/h
159 20-01-2011 07:45:02 1 C 4.72 g/m*3 1 C 0 km/h
160 20-01-2011 07:57:03 1 C 4.72 g/m*3 1 C 0 km/h
161 20-01-2011 08:09:02 1.2 C 4.79 g/m*3 1.2 C 0 km/h
162 20-01-2011 08:21:02 1.2 C 4.79 g/m*3 1.2 C 0 km/h
163 20-01-2011 08:33:03 1.2 C 4.74 g/m*3 1.2 C 0 km/h
164 20-01-2011 08:45:02 1.2 C 4.74 g/m*3 1.2 C 0 km/h
165 20-01-2011 08:57:02 1.2 C 4.68 g/m*3 1.2 C 0 km/h
166 20-01-2011 09:09:02 1.2 C 4.68 g/m*3 1.2 C 0 km/h
167 20-01-2011 09:21:02 1.3 C 4.72 g/m*3 1.3 C 0 km/h
168 20-01-2011 09:33:02 1.4 C 4.69 g/m*3 1.4 C 0 km/h
169 20-01-2011 09:45:02 1.6 C 4.7 g/m*3 1.6 C 0 km/h
170 20-01-2011 09:57:02 1.7 C 4.68 g/m*3 1.7 C 0 km/h
171 20-01-2011 10:09:02 1.8 C 4.66 g/m*3 1.8 C 0 km/h
172 20-01-2011 10:21:02 1.8 C 4.66 g/m*3 1.8 C 0 km/h
173 20-01-2011 10:33:02 2.1 C 4.64 g/m*3 2.1 C 0 km/h
174 20-01-2011 10:45:02 2.1 C 4.53 g/m*3 2.1 C 0 km/h
175 20-01-2011 10:57:02 2.3 C 4.54 g/m*3 2.3 C 0 km/h
Sensor: Nr:Datum:Temp:Abs-Feuchte:Windchill:Wind:
Aussen-T/F 176 20-01-2011 11:09:02 2.3 C 4.54 g/m*3 2.3 C 0 km/h
177 20-01-2011 11:21:02 2.7 C 4.54 g/m*3 2.7 C 0 km/h
178 20-01-2011 11:33:02 2.8 C 4.52 g/m*3 2.8 C 0 km/h
179 20-01-2011 11:45:01 2.6 C 4.4 g/m*3 2.6 C 0 km/h
180 20-01-2011 11:57:01 3.2 C 4.64 g/m*3 3.2 C 0 km/h
181 20-01-2011 12:09:01 3.1 C 4.49 g/m*3 3.1 C 0 km/h
182 20-01-2011 12:21:02 3.2 C 4.46 g/m*3 3.2 C 0 km/h
183 20-01-2011 12:33:01 3.2 C 4.4 g/m*3 3.2 C 0 km/h
184 20-01-2011 12:45:01 3.4 C 4.46 g/m*3 3.4 C 0 km/h
185 20-01-2011 12:57:01 3.4 C 4.4 g/m*3 3.4 C 0 km/h
186 20-01-2011 13:09:01 3.5 C 4.37 g/m*3 3.5 C 0 km/h
187 20-01-2011 13:21:02 3.8 C 4.39 g/m*3 3.8 C 0 km/h
188 20-01-2011 13:33:01 4 C 4.39 g/m*3 4 C 0 km/h
189 20-01-2011 13:45:02 4 C 4.32 g/m*3 4 C 0 km/h
190 20-01-2011 13:57:02 4.1 C 4.29 g/m*3 4.1 C 0 km/h
191 20-01-2011 14:09:02 4.1 C 4.29 g/m*3 4.1 C 0 km/h
192 20-01-2011 14:21:02 4.1 C 4.29 g/m*3 4.1 C 0 km/h
193 20-01-2011 14:33:01 4.1 C 4.29 g/m*3 4.1 C 0 km/h
194 20-01-2011 14:45:02 4.1 C 4.29 g/m*3 4.1 C 0 km/h
195 20-01-2011 14:57:03 4.1 C 4.29 g/m*3 4.1 C 0 km/h
196 20-01-2011 15:09:01 4.1 C 4.29 g/m*3 4.1 C 0 km/h
197 20-01-2011 15:21:02 4.1 C 4.29 g/m*3 4.1 C 0 km/h
198 20-01-2011 15:33:02 2.7 C 3.96 g/m*3 2.7 C 0 km/h
199 20-01-2011 15:45:02 2.7 C 3.96 g/m*3 2.7 C 0 km/h
200 20-01-2011 15:57:02 2.7 C 4.02 g/m*3 2.7 C 0 km/h
Sensor: Nr:Datum:Temp:Abs-Feuchte:Windchill:Wind:
Aussen-T/F 201 20-01-2011 16:09:02 2.7 C 4.02 g/m*3 2.7 C 0 km/h
202 20-01-2011 16:21:02 2.6 C 3.99 g/m*3 2.6 C 0 km/h
203 20-01-2011 16:33:02 2.5 C 3.97 g/m*3 2.5 C 0 km/h
204 20-01-2011 16:45:01 2.4 C 4 g/m*3 2.4 C 0 km/h
205 20-01-2011 16:57:01 2.2 C 3.94 g/m*3 2.2 C 0 km/h
206 20-01-2011 17:09:02 2.2 C 3.94 g/m*3 2.2 C 0 km/h
207 20-01-2011 17:21:01 2 C 3.95 g/m*3 2 C 0 km/h
208 20-01-2011 17:33:01 2 C 3.95 g/m*3 2 C 0 km/h
209 20-01-2011 17:45:02 1.9 C 3.97 g/m*3 1.9 C 0 km/h
210 20-01-2011 17:57:02 1.8 C 3.95 g/m*3 1.8 C 0 km/h
211 20-01-2011 18:09:02 1.7 C 3.97 g/m*3 1.7 C 0 km/h
212 20-01-2011 18:21:02 1.7 C 3.97 g/m*3 1.7 C 0 km/h
213 20-01-2011 18:33:02 1.7 C 3.97 g/m*3 1.7 C 0 km/h
214 20-01-2011 18:45:02 1.7 C 3.97 g/m*3 1.7 C 0 km/h
215 20-01-2011 18:57:02 1.7 C 3.97 g/m*3 1.7 C 0 km/h
216 20-01-2011 19:09:02 1.7 C 3.97 g/m*3 1.7 C 0 km/h
217 20-01-2011 19:21:02 1.4 C 3.95 g/m*3 1.4 C 0 km/h
218 20-01-2011 19:33:03 1.2 C 3.89 g/m*3 1.2 C 0 km/h
219 20-01-2011 19:45:02 1.1 C 3.81 g/m*3 1.1 C 0 km/h
220 20-01-2011 19:57:02 1.1 C 3.81 g/m*3 1.1 C 0 km/h
221 20-01-2011 20:09:01 0.8 C 3.79 g/m*3 0.8 C 0 km/h
222 20-01-2011 20:21:02 0.8 C 3.79 g/m*3 0.8 C 0 km/h
223 20-01-2011 20:33:01 1.1 C 3.71 g/m*3 1.1 C 0 km/h
224 20-01-2011 20:45:02 1.1 C 3.71 g/m*3 1.1 C 0 km/h
225 20-01-2011 20:57:02 0.7 C 3.61 g/m*3 0.7 C 0 km/h
Sensor: Nr:Datum:Temp:Abs-Feuchte:Windchill:Wind:
Aussen-T/F 226 20-01-2011 21:09:01 0 C 3.49 g/m*3 0 C 0 km/h
227 20-01-2011 21:21:01 0 C 3.63 g/m*3 0 C 0 km/h
228 20-01-2011 21:33:01 -0.2 C 3.63 g/m*3 -0.2 C 0 km/h
229 20-01-2011 21:45:02 -0.4 C 3.58 g/m*3 -0.4 C 0 km/h
230 20-01-2011 21:57:03 -0.2 C 3.63 g/m*3 -0.2 C 0 km/h
231 20-01-2011 22:10:04 -0.4 C 3.53 g/m*3 -0.4 C 0 km/h
232 20-01-2011 22:22:04 -0.2 C 3.54 g/m*3 -0.2 C 0 km/h
233 20-01-2011 22:34:04 -0.4 C 3.49 g/m*3 -0.4 C 0 km/h
234 20-01-2011 22:46:04 -0.2 C 3.58 g/m*3 -0.2 C 0 km/h
235 20-01-2011 22:58:04 -0.2 C 3.58 g/m*3 -0.2 C 0 km/h
236 20-01-2011 23:10:04 -0.4 C 3.58 g/m*3 -0.4 C 0 km/h
237 20-01-2011 23:22:04 0 C 3.68 g/m*3 0 C 0 km/h
238 20-01-2011 23:34:04 0.2 C 3.68 g/m*3 0.2 C 0 km/h
239 20-01-2011 23:46:04 0.3 C 3.66 g/m*3 0.3 C 0 km/h
240 20-01-2011 23:58:04 0.3 C 3.61 g/m*3 0.3 C 0 km/h

Legende:
   Min
   Max


Maximal/Minimal-Werte vom 19.01.2011 - 20.01.2011

Sensor Min Max Avg
Temp
(Aussen-T/F)
-0.4 °C
20-01-2011  21:45:02
5.5 °C
19-01-2011  14:44:01
2.5 °C
Abs-Feuchte
(Aussen-T/F)
3.49 g/m*3
20-01-2011  21:09:01
5.46 g/m*3
19-01-2011  00:08:04
4.5 g/m*3
Windchill
(Aussen-T/F)
-0.4 C
20-01-2011  21:45:02
5.5 C
19-01-2011  14:44:01
2.49 C

Die Daten stammen von einer Davis Vantage Pro 2 Wetter-Station und werden unter Linux mit der Software wview2wettercgi und aufbereitet. Alle Angaben erfolgen ohne Gewähr für ihre Vollständigkeit oder Richtigkeit.
Kontakt: Rainer Krienke krienke@uni-koblenz.de . Meine Webseiten an der Uni Koblenz oder privat.
Version: $Revision: 0.78 $